GFSFLT2_sfc_dewp_000.txt.gz
Dewpoint
11 12 12 21 22 23 23 24 20 21 30 30 31 34 35 37 42 45 51 52 52 56 59 62 64 67 70 73 74 74 73 75
15 13 13 15 22 22 23 29 26 23 26 27 33 31 29 35 42 45 51 52 51 54 57 60 63 65 68 70 73 73 73 73
19 15 12 15 17 24 23 24 23 23 23 29 33 34 32 29 42 43 48 53 53 52 55 59 61 63 66 69 71 72 72 74
13 12 10 13 20 24 22 31 25 24 20 24 28 29 29 29 29 32 47 52 54 54 55 57 60 61 63 66 68 70 72 74
22 10 12 11 14 20 23 25 33 24 23 25 28 30 32 40 40 42 51 53 56 56 58 58 59 63 62 65 65 67 70 71
19 23 15 16 11 13 16 21 25 23 26 27 27 31 30 34 42 45 53 56 58 58 60 61 63 67 67 64 65 66 67 69
24 20 18 16 11 11 14 18 23 24 24 28 31 30 30 29 35 45 53 56 58 59 65 68 68 68 68 66 67 67 68 68
31 25 23 19 18 13 11 13 16 18 22 24 28 30 30 30 31 45 53 55 58 61 63 65 66 67 68 68 68 69 70 70
33 29 27 25 24 19 16 13 16 17 22 23 25 29 33 33 41 45 52 55 58 60 62 65 66 68 68 69 69 70 71 72
33 36 30 25 26 23 19 15 17 23 26 26 30 35 40 42 39 45 52 54 58 57 61 65 64 64 67 68 70 71 72 72
32 31 32 31 33 25 23 21 18 25 29 29 32 41 48 49 49 50 53 56 58 58 62 65 63 65 66 67 69 70 71 72
36 32 31 41 45 47 46 34 26 24 31 31 39 36 30 52 48 49 53 56 58 59 62 62 63 63 65 66 68 69 71 71
34 35 36 47 46 47 40 34 29 39 42 43 43 46 54 54 54 55 58 60 60 60 60 63 63 64 65 66 67 69 71 71
37 38 35 48 45 46 51 52 50 50 50 50 54 55 56 57 58 59 58 57 57 60 64 65 65 66 67 68 70 71 72 70
39 36 50 49 51 52 52 52 51 52 52 52 52 53 54 55 55 55 55 55 56 61 65 67 69 68 69 73 73 72 71 70
46 47 49 50 50 50 50 49 50 51 49 50 51 51 53 54 56 59 60 60 59 61 64 68 70 70 72 72 72 72 71 70
46 50 47 49 49 49 48 50 51 51 51 52 55 57 60 61 61 61 62 62 62 63 66 68 70 70 70 70 71 70 70 69
42 51 52 48 47 46 46 46 48 49 49 50 52 54 58 60 62 64 64 65 65 66 68 69 69 70 70 70 70 69 67 66
49 49 48 48 46 43 44 44 44 44 46 47 48 48 50 54 57 57 61 62 65 65 67 68 69 69 70 70 69 68 66 67

GFSFLT2_sfc_dewp_003.txt.gz
Dewpoint
13 10 10 15 18 20 21 24 22 23 27 29 33 34 32 32 31 32 45 50 51 53 58 62 64 68 70 74 76 77 74 79
11 11 9 9 15 18 22 28 25 22 26 25 33 32 31 33 31 34 39 50 51 52 55 60 61 65 69 72 75 75 75 76
18 14 13 9 10 19 20 22 22 22 24 28 34 36 33 32 31 32 40 48 51 51 53 57 59 62 66 69 73 74 75 75
19 16 13 11 13 14 21 31 23 24 22 26 28 29 31 32 31 33 40 46 50 51 52 54 59 59 61 64 66 71 74 76
23 18 16 15 13 12 14 23 33 24 23 26 27 29 32 31 32 34 40 44 49 50 52 54 56 60 58 62 62 65 72 72
20 24 17 16 13 11 11 16 23 22 26 29 29 31 31 33 33 36 38 50 49 51 55 56 59 62 62 61 60 62 66 68
23 22 20 14 8 8 11 16 19 22 24 28 32 32 31 30 33 34 36 47 53 54 61 63 63 65 65 63 65 64 69 69
25 21 19 18 16 10 10 10 14 17 20 24 28 33 31 31 33 33 34 36 52 57 59 65 65 67 67 67 67 68 72 71
33 29 28 24 21 20 19 16 13 14 20 22 26 31 34 32 32 35 39 40 47 56 60 63 64 68 68 70 69 71 74 74
30 34 29 28 32 26 23 22 20 20 20 22 30 35 35 31 32 37 40 41 44 52 59 65 62 63 67 68 73 74 75 75
32 31 38 34 39 38 40 35 27 25 23 19 24 25 34 33 32 36 37 40 46 55 59 68 66 69 70 70 72 73 73 75
36 32 30 31 42 43 40 34 31 30 29 20 23 26 29 34 40 45 46 43 51 57 61 65 68 66 69 68 70 72 73 74
32 33 31 44 43 43 36 38 51 49 47 40 25 32 51 52 49 50 49 56 60 61 66 68 68 66 69 69 69 70 71 72
32 32 30 45 42 40 51 51 51 51 50 50 33 47 53 54 54 54 54 58 59 63 65 66 68 69 70 71 72 74 73 73
31 34 51 50 50 51 51 51 51 51 49 49 51 53 55 57 59 59 59 60 59 60 65 66 70 70 72 75 75 74 74 73
40 48 49 49 50 49 49 49 50 51 52 52 54 54 54 54 54 54 56 59 60 62 65 68 70 69 72 73 74 74 72 71
47 50 49 49 50 50 50 50 50 54 54 57 56 56 58 60 61 59 59 60 61 64 66 68 70 72 71 72 73 71 71 70
42 50 50 48 47 47 47 47 48 49 51 54 56 58 60 61 61 61 62 63 64 65 67 69 70 70 71 72 72 71 70 70
50 49 47 46 46 45 44 42 42 42 45 46 47 47 49 53 57 57 61 62 62 63 65 68 69 70 71 72 72 71 69 69

GFSFLT2_sfc_dewp_006.txt.gz
Dewpoint
12 11 8 12 13 15 19 21 21 23 26 27 32 39 41 37 37 38 47 50 52 56 59 63 65 67 70 73 75 77 76 77
14 12 12 8 13 11 16 24 25 23 29 29 35 38 41 42 40 36 39 50 52 53 59 62 64 66 69 72 75 77 77 77
18 17 14 10 10 12 14 19 22 25 26 33 41 43 41 39 37 35 38 49 49 53 56 62 64 65 67 70 74 75 76 76
16 16 14 13 14 13 14 27 21 23 24 26 39 38 35 37 36 38 40 44 49 53 55 59 62 63 66 68 71 74 75 76
18 17 18 14 12 12 11 17 28 23 23 28 36 40 41 38 38 44 48 51 50 51 55 57 59 62 64 67 68 72 74 74
18 23 20 21 15 15 13 12 19 19 28 30 36 37 38 41 42 42 52 57 52 52 57 56 60 63 64 66 67 69 72 72
20 19 19 19 15 14 17 20 20 19 22 32 34 39 38 38 43 45 49 54 56 58 61 61 62 64 64 64 65 66 70 72
26 21 20 20 19 14 13 16 18 18 20 23 30 33 43 39 42 43 45 46 56 59 63 66 63 64 63 63 64 66 69 70
29 24 23 22 23 20 18 13 15 17 23 28 28 35 39 46 42 43 44 46 53 60 61 63 64 64 63 64 65 66 69 71
30 32 26 24 23 20 20 21 17 20 25 27 31 33 35 35 39 43 45 44 47 40 60 65 63 62 64 65 68 68 73 72
32 31 31 28 28 29 27 28 29 26 31 24 27 28 33 32 34 39 39 50 48 41 50 66 65 66 68 67 67 72 71 74
34 30 31 36 39 40 38 35 44 45 44 41 36 25 27 37 36 34 33 38 54 54 55 66 68 66 68 69 69 69 72 74
33 31 29 42 41 40 37 39 49 48 48 47 45 48 53 54 59 57 43 48 58 65 65 69 69 68 69 70 71 71 75 75
36 37 36 42 45 41 49 49 48 48 48 49 52 51 50 50 55 57 57 54 60 69 71 72 71 72 73 73 75 76 76 76
32 33 45 49 52 51 49 50 52 54 50 48 47 48 52 54 56 58 57 62 62 68 72 73 75 73 73 75 75 75 75 76
36 40 46 48 47 48 50 55 56 58 59 60 55 53 54 56 58 62 63 65 66 67 69 71 73 73 75 75 75 75 75 73
40 52 51 51 50 51 52 53 54 55 55 57 60 61 61 63 64 64 66 68 69 70 71 72 75 74 74 75 75 73 72 71
52 52 52 52 51 49 48 48 49 51 52 57 58 59 61 63 64 63 65 66 67 70 71 71 73 73 74 75 74 72 70 70
51 54 46 46 44 44 45 44 44 45 48 49 55 59 58 60 61 61 63 66 68 69 70 71 71 71 73 74 73 72 70 71

GFSFLT2_sfc_dewp_009.txt.gz
Dewpoint
16 15 11 11 8 9 12 20 22 21 22 25 37 38 40 42 45 45 45 47 49 53 57 60 62 67 68 72 72 73 74 74
17 15 13 8 13 9 8 10 16 18 22 26 31 38 42 43 43 43 45 47 49 52 57 60 62 65 68 71 73 74 73 75
19 15 11 12 7 8 10 11 13 19 21 26 31 41 42 41 41 41 45 46 49 52 56 60 62 65 67 70 72 74 74 74
14 17 15 12 13 9 14 12 18 14 16 27 23 40 41 40 42 38 44 46 49 51 55 60 62 63 66 71 72 73 74 74
18 16 15 13 12 13 7 15 16 22 17 19 19 32 34 36 41 41 44 50 51 51 56 60 61 62 65 68 72 73 74 74
16 19 19 21 15 13 10 8 9 10 11 19 26 36 38 38 38 40 42 51 51 52 56 58 61 62 63 67 70 73 74 74
19 20 18 14 18 14 13 10 11 11 11 16 20 38 41 39 43 42 44 52 52 53 54 58 60 62 63 65 67 71 72 73
27 22 18 16 18 20 12 12 14 14 15 23 23 24 43 40 37 34 47 54 54 55 54 56 58 61 62 64 66 68 71 72
22 26 25 20 17 19 22 16 15 15 15 21 23 27 37 40 41 32 40 49 52 54 61 56 58 60 62 64 65 66 69 71
23 29 26 27 27 25 24 27 21 21 24 29 29 33 37 34 33 33 37 44 51 54 58 64 59 60 61 63 65 66 67 69
26 26 27 29 28 28 25 25 35 44 45 40 39 33 30 35 38 31 35 35 43 50 57 61 62 61 60 61 63 64 65 67
27 25 24 29 36 40 38 37 49 49 49 47 46 40 36 50 51 45 42 39 38 49 50 62 62 61 61 61 62 62 63 66
34 25 32 43 45 42 36 43 49 48 48 49 47 50 51 51 54 55 54 51 43 49 54 62 64 62 61 61 61 64 63 71
36 34 32 48 45 42 51 52 55 56 56 50 50 51 50 52 51 55 61 52 67 61 64 68 67 66 65 62 65 72 73 76
33 39 50 51 49 54 55 57 58 59 60 60 60 61 61 57 57 57 62 66 68 70 72 73 71 69 71 74 74 74 76 75
44 37 46 50 49 59 59 57 55 58 59 58 58 59 60 61 64 65 65 67 69 70 70 71 73 73 73 73 74 75 74 72
48 50 52 55 57 55 56 55 54 55 56 57 56 57 58 58 60 63 67 69 70 70 72 72 72 73 73 73 74 72 71 70
48 52 52 52 51 52 52 51 51 51 55 56 56 56 57 57 58 60 61 64 69 70 71 72 73 73 73 72 71 70 69 69
52 52 51 48 47 47 47 47 48 49 51 53 55 56 57 57 58 58 59 59 66 69 70 70 71 71 72 71 70 69 69 69

GFSFLT2_sfc_dewp_015.txt.gz
Dewpoint
22 18 18 15 15 15 10 22 14 19 21 24 28 32 41 43 43 45 47 50 51 53 54 57 60 62 65 66 66 68 70 70
16 19 18 16 15 15 10 10 11 13 17 18 25 26 38 44 44 45 47 47 50 52 53 56 58 60 64 66 66 66 69 70
14 13 14 14 14 12 12 10 9 9 11 18 25 28 31 40 45 46 47 47 47 50 52 54 57 59 63 66 66 66 67 68
12 16 13 13 12 12 11 10 10 9 11 20 22 25 29 31 40 43 47 48 47 47 50 54 57 58 63 65 66 66 67 69
10 18 16 13 15 13 12 11 12 10 11 16 21 24 26 33 39 41 46 47 47 46 48 53 57 58 62 65 66 67 68 69
16 14 18 15 15 15 12 12 12 11 11 17 18 20 20 29 35 43 47 47 47 49 49 54 57 59 62 65 66 67 68 69
27 26 25 22 16 14 13 13 12 12 10 11 19 21 21 22 28 42 43 45 46 48 50 54 56 59 63 64 67 67 68 69
25 25 25 23 18 17 14 14 13 12 12 15 16 20 19 18 24 31 39 41 43 45 47 52 55 59 61 65 66 68 68 69
24 25 25 21 19 18 15 16 14 12 13 15 14 16 17 18 26 31 31 38 43 47 47 52 56 59 61 64 66 69 69 69
25 27 22 21 25 19 18 19 19 16 18 21 18 17 21 23 24 29 34 40 47 48 48 52 57 59 60 63 66 68 69 69
24 26 27 25 30 28 18 19 28 20 21 21 23 25 24 30 33 32 35 38 46 52 52 54 57 60 61 62 65 68 69 69
26 25 24 29 40 45 42 19 47 39 28 24 26 20 22 42 45 36 33 36 44 53 55 55 57 59 61 62 64 67 69 69
27 26 30 41 52 48 32 24 47 47 46 38 28 27 35 48 49 53 45 47 44 41 53 56 57 60 61 61 62 65 68 69
30 32 32 51 51 49 52 56 56 55 57 57 58 60 62 63 64 64 64 65 68 67 63 58 54 58 60 61 63 64 65 67
35 38 44 49 51 57 56 56 58 57 59 59 59 60 60 60 61 60 59 58 58 58 61 61 68 64 59 59 62 63 64 65
41 42 49 52 53 55 56 55 56 57 57 58 58 58 58 58 58 58 58 56 55 53 53 53 58 62 64 67 62 62 63 64
44 46 50 53 53 55 55 53 54 56 57 57 56 56 55 55 56 57 57 57 56 55 55 54 57 58 58 57 60 62 64 66
40 49 49 51 54 53 52 53 51 55 55 56 56 55 55 56 56 57 58 58 58 58 56 55 58 63 62 60 60 66 69 71
50 51 52 53 53 53 52 52 56 54 53 54 54 56 56 56 57 58 60 61 61 61 62 61 62 63 62 62 61 59 69 71

GFSFLT2_sfc_dewp_021.txt.gz
Dewpoint
22 21 22 22 21 18 14 18 15 16 21 26 29 29 35 40 43 49 54 57 59 62 64 66 67 68 69 69 71 72 72 73
23 22 21 21 22 17 16 16 14 15 21 19 32 31 33 38 40 43 47 52 56 60 62 64 65 67 68 69 70 71 72 72
24 22 21 19 20 20 17 16 10 9 11 29 34 39 37 36 39 41 45 48 51 57 60 63 63 65 66 68 70 71 72 72
21 22 22 21 21 21 16 24 17 14 10 23 28 32 37 35 37 41 48 51 51 52 56 59 63 63 64 66 67 69 71 72
22 19 20 22 22 21 19 21 25 14 13 20 27 29 31 32 35 42 47 52 53 51 54 58 60 63 63 65 65 67 70 71
21 24 26 25 20 22 19 19 20 20 18 22 26 30 31 35 39 40 45 50 53 55 58 58 60 63 64 64 65 66 67 69
26 26 25 24 23 22 22 23 22 21 21 24 28 31 32 32 38 40 41 43 48 52 60 62 62 63 64 64 66 67 69 69
25 23 22 23 24 24 23 23 22 21 21 23 28 32 34 33 36 39 42 41 45 51 57 60 62 63 64 65 65 68 69 69
21 24 24 22 23 23 23 24 23 22 25 26 26 30 33 36 38 41 41 43 46 48 54 59 60 63 63 65 67 68 68 70
19 24 19 21 26 30 29 26 24 25 26 27 30 35 38 38 37 40 41 42 47 41 50 61 58 56 63 64 68 69 70 70
15 18 21 22 24 38 40 30 40 44 33 27 27 30 38 36 37 41 42 45 45 43 46 60 61 63 65 65 68 69 69 70
21 13 15 24 29 43 47 33 51 54 54 50 30 26 29 40 37 36 38 40 44 47 51 56 59 58 64 64 67 68 69 70
23 21 20 25 38 51 40 35 53 54 56 57 54 37 45 51 50 58 58 49 48 56 60 62 63 61 65 65 67 67 69 71
24 21 19 27 33 34 50 54 55 56 57 57 59 59 50 58 62 65 65 62 61 64 66 67 65 66 66 68 69 70 71 72
25 21 31 36 42 50 55 55 56 56 57 58 60 59 59 62 63 63 62 63 66 66 66 67 68 69 68 70 69 70 71 73
31 29 33 36 40 46 53 55 56 57 58 58 60 60 61 60 59 58 57 57 57 59 61 63 65 66 67 67 71 71 71 72
35 37 39 37 38 45 52 54 57 56 57 57 58 58 58 58 59 59 59 59 61 63 63 64 65 65 64 65 65 65 68 70
30 38 42 43 47 51 51 55 56 56 58 59 60 59 60 60 61 62 62 64 65 66 66 65 64 64 65 66 65 65 65 63
41 42 44 46 48 49 52 56 57 58 60 60 60 60 59 60 61 60 62 62 62 63 64 66 66 67 67 68 68 66 65 65

GFSFLT2_sfc_dewp_024.txt.gz
Dewpoint
20 21 22 23 20 14 10 15 12 12 20 23 27 29 30 31 33 37 51 55 57 58 61 64 65 68 70 72 74 74 72 76
18 20 20 20 21 14 12 18 17 11 18 19 27 30 31 32 32 36 45 53 55 58 59 62 64 66 69 71 73 74 74 74
21 20 19 18 19 18 14 13 12 12 11 22 27 31 31 32 34 35 42 47 51 54 58 59 62 65 67 69 71 72 73 74
20 20 19 19 20 20 15 23 16 15 10 15 21 24 31 31 34 35 39 43 45 48 53 57 60 63 64 66 67 70 72 75
23 21 23 20 20 20 18 19 26 16 14 21 27 29 33 33 34 38 41 46 48 47 49 54 58 62 62 64 65 66 71 71
20 25 24 23 21 21 19 18 19 19 19 22 22 26 29 28 31 32 41 44 45 48 49 53 58 64 66 62 63 64 66 68
28 26 25 22 20 21 22 23 22 20 22 24 26 27 29 30 32 32 35 39 43 49 54 59 60 64 67 65 65 65 68 67
28 26 24 23 24 23 22 22 23 23 23 25 27 30 31 31 33 33 34 34 34 40 52 55 59 62 62 67 65 67 70 70
26 25 24 24 25 24 25 25 25 25 28 29 29 30 31 31 31 32 35 37 39 40 44 50 51 59 62 65 66 69 71 72
23 27 24 25 26 26 25 26 26 27 29 30 31 32 33 33 33 34 34 36 40 35 36 42 46 44 59 62 70 70 72 73
21 22 24 23 24 25 27 27 27 29 31 29 31 29 32 32 32 36 38 38 38 37 39 50 48 51 56 62 66 68 72 73
21 20 20 24 23 35 33 31 33 42 42 44 47 37 31 34 31 33 35 38 40 40 43 45 52 52 57 60 64 68 71 71
20 19 20 23 33 43 33 43 49 48 50 52 52 50 55 57 53 51 49 48 49 49 49 53 57 57 59 62 63 67 69 69
20 20 18 21 24 31 45 50 49 50 53 55 57 59 59 60 60 55 53 54 58 54 54 60 64 64 63 69 67 69 70 70
22 20 29 28 31 36 38 42 49 48 48 53 55 58 60 61 59 58 59 61 62 58 63 66 68 68 68 70 70 70 71 72
26 26 30 32 32 34 38 41 42 47 47 52 54 58 61 61 60 61 61 62 63 65 64 67 71 71 72 72 72 72 72 73
32 33 31 31 34 36 38 43 47 47 51 55 57 59 61 61 61 62 62 62 63 64 65 66 67 67 66 67 68 71 72 71
28 32 33 35 36 43 44 45 47 49 52 57 60 60 61 62 63 64 65 66 66 67 67 65 66 67 69 69 69 67 66 62
35 37 37 39 40 42 44 44 45 49 56 60 60 60 61 62 63 62 64 64 65 66 66 68 67 65 67 69 68 68 67 68

GFSFLT2_sfc_dewp_027.txt.gz
Dewpoint
19 18 21 21 18 13 10 10 7 8 16 20 25 27 30 31 34 36 43 48 54 57 60 62 62 67 70 72 75 77 76 77
19 19 20 21 19 13 13 19 17 12 18 17 27 29 30 32 33 35 38 47 52 55 58 62 61 64 69 71 74 76 75 76
22 20 20 19 19 18 13 13 14 16 14 21 28 30 30 31 33 34 35 45 51 54 56 60 61 62 65 69 73 75 75 76
21 19 20 20 20 22 16 25 14 14 17 19 20 22 29 31 33 33 36 43 50 52 54 56 60 62 63 66 67 72 74 76
25 19 21 19 18 19 19 18 25 14 16 23 24 25 30 31 33 37 39 41 45 49 52 54 56 62 62 65 65 66 72 72
23 26 22 22 18 18 18 18 19 18 19 24 26 30 32 33 35 36 39 43 44 44 46 51 57 63 65 63 64 65 67 69
27 25 22 21 18 18 20 22 20 20 22 24 27 31 31 33 34 35 39 42 43 45 50 54 60 65 67 63 66 66 69 69
30 25 26 24 22 20 19 20 21 20 21 24 28 29 30 30 31 32 34 35 38 42 47 53 55 62 65 68 66 67 70 70
30 29 28 26 25 24 22 22 22 22 26 26 27 29 31 32 33 33 33 33 36 37 38 47 52 56 59 67 68 69 70 72
28 31 27 28 27 25 25 25 24 26 29 29 31 33 33 33 34 35 35 36 37 32 36 42 39 38 56 57 70 71 72 72
26 26 26 25 27 27 27 27 27 28 29 28 30 31 34 34 34 36 36 37 37 34 36 48 42 44 48 57 65 71 71 73
26 25 26 27 26 26 29 27 30 29 30 31 32 31 37 52 52 48 40 42 42 38 39 40 47 44 46 49 60 69 71 73
23 24 25 29 33 32 30 45 48 37 39 42 43 49 56 57 57 57 57 56 53 54 54 52 52 50 59 58 60 66 69 71
23 23 23 25 25 34 43 45 47 48 48 49 52 53 54 56 59 60 59 56 51 54 57 57 56 59 66 68 69 72 72 73
22 23 31 32 32 31 34 39 42 45 45 46 46 50 53 56 61 61 59 60 59 59 60 61 67 68 68 74 72 73 75 76
26 28 28 30 30 32 34 35 37 39 40 46 47 52 54 57 61 61 61 62 61 63 63 67 71 70 71 73 72 71 73 75
27 29 30 30 32 31 32 34 37 41 46 47 47 51 57 59 63 62 62 62 64 66 66 68 69 69 69 70 73 72 73 73
26 32 33 35 34 34 33 36 42 44 44 46 48 53 59 60 63 65 66 68 68 68 67 67 68 69 70 70 70 69 71 70
32 33 33 36 34 35 34 38 40 41 43 43 47 56 61 62 63 62 64 65 66 66 67 67 66 67 69 70 70 69 68 68

GFSFLT2_sfc_dewp_030.txt.gz
Dewpoint
21 17 18 19 17 14 12 12 9 10 16 19 26 27 30 29 35 38 42 46 55 59 62 63 63 66 68 72 74 75 74 75
20 19 18 19 19 15 15 20 18 12 21 18 27 29 31 33 31 38 42 46 53 58 61 62 62 64 67 71 73 75 75 75
21 21 19 18 19 18 15 15 15 16 13 25 32 33 34 33 34 37 43 47 51 57 60 62 62 63 65 68 72 74 75 75
23 21 20 18 20 22 19 26 18 19 16 22 28 30 32 33 35 38 42 49 50 54 59 61 62 62 64 67 69 73 75 75
25 22 21 20 19 21 20 19 28 18 16 24 27 32 36 34 38 42 46 47 50 53 57 60 62 63 63 66 66 71 74 75
24 27 24 24 19 20 19 20 22 18 23 26 27 27 34 39 41 41 48 50 51 53 57 59 62 65 65 65 66 68 71 73
26 25 23 19 19 19 22 24 23 21 21 29 34 35 35 38 43 44 47 50 53 53 59 61 64 66 67 66 67 67 69 72
31 28 27 25 20 19 18 18 20 20 20 28 35 39 39 41 41 42 45 45 49 54 58 61 66 67 67 67 68 68 70 70
32 32 29 27 25 21 20 19 19 22 28 31 34 36 38 38 37 39 36 38 45 51 55 59 60 69 68 68 69 71 71 71
30 33 29 29 29 27 22 21 21 25 29 34 37 39 38 37 37 39 38 44 51 38 48 57 48 51 63 68 72 71 73 73
29 29 31 29 30 28 27 26 25 26 28 31 32 33 38 35 35 38 44 47 47 42 45 60 54 57 60 62 70 71 70 73
30 28 27 31 29 28 28 27 44 34 29 30 30 28 48 57 56 56 56 58 60 58 57 53 64 56 62 61 67 70 70 71
25 27 29 37 32 30 29 44 49 47 41 38 44 53 55 54 56 58 60 60 61 62 61 68 68 64 69 68 65 69 71 72
25 26 28 32 34 37 46 45 44 46 47 48 49 50 52 53 56 59 61 60 58 62 63 65 68 69 70 72 75 75 75 73
25 26 43 35 35 35 36 39 39 42 40 43 46 48 52 55 58 62 63 63 62 64 67 71 72 75 74 77 78 77 79 77
29 30 32 30 30 31 34 34 38 36 38 46 47 47 49 55 58 63 65 64 63 65 67 73 75 76 76 77 78 78 79 79
30 30 31 30 32 32 32 34 35 36 37 44 45 46 48 54 59 61 65 68 70 70 69 70 71 71 71 73 75 75 77 77
25 34 38 39 36 33 33 33 35 36 39 44 44 48 49 57 61 63 64 66 68 70 68 70 70 70 71 72 73 75 76 74
37 39 40 39 36 35 37 37 34 35 38 41 42 43 46 54 62 61 64 65 66 68 68 68 68 68 69 70 72 73 73 75

GFSFLT2_sfc_dewp_036.txt.gz
Dewpoint
27 32 35 29 30 23 15 26 14 16 14 17 19 20 38 50 53 55 56 56 55 57 58 59 63 65 66 66 66 70 69 70
23 29 32 30 23 19 15 14 16 15 14 14 16 16 21 46 52 55 57 55 54 57 58 59 62 65 67 67 66 69 70 69
22 25 26 27 21 18 18 16 13 14 14 17 17 21 18 42 48 53 55 54 53 56 58 58 60 64 68 68 68 69 71 71
23 20 24 28 21 17 14 13 17 18 15 24 18 19 19 23 51 52 53 54 54 57 57 58 59 62 66 69 69 70 71 71
23 18 19 18 27 17 16 16 15 13 14 21 21 26 29 21 30 48 51 53 55 56 57 58 58 61 65 69 70 70 70 70
27 24 27 19 20 21 15 15 14 15 17 21 23 26 26 22 32 40 49 54 55 56 57 58 58 60 64 65 70 70 70 71
27 28 30 30 24 23 17 16 15 16 18 20 25 36 35 34 36 43 52 54 55 57 57 59 59 59 63 64 68 70 71 71
25 33 33 27 27 27 17 18 19 19 18 21 30 39 39 42 44 46 52 55 56 57 58 59 59 60 62 63 66 69 70 71
27 32 31 30 31 28 19 19 19 21 21 34 40 50 51 35 37 44 51 55 57 58 58 59 60 60 61 62 64 68 70 70
27 31 28 32 33 36 41 41 41 45 43 48 54 55 56 57 50 50 51 50 48 55 58 61 61 60 61 62 63 64 66 70
27 30 31 34 35 33 36 39 39 41 49 53 53 54 55 57 60 58 56 57 57 57 54 54 62 62 62 62 63 64 65 66
25 30 31 35 36 40 41 37 39 44 51 50 46 52 54 58 63 64 60 58 56 55 58 58 58 62 63 62 63 63 64 66
28 34 35 37 37 37 36 38 39 42 45 48 53 54 56 58 60 65 65 64 63 65 63 58 57 59 62 64 64 65 66 66
34 34 35 42 39 34 35 36 36 41 45 44 43 45 53 58 58 60 63 66 68 70 70 71 68 64 68 67 68 67 69 70
36 38 42 47 45 40 39 37 40 38 42 43 43 41 43 57 57 57 60 62 65 68 69 69 70 70 69 70 71 70 69 69
32 38 35 44 45 42 39 40 40 40 36 43 42 41 40 43 58 58 59 61 63 64 68 68 69 69 69 69 70 70 70 71
30 33 35 39 38 40 38 39 41 42 42 44 40 39 40 41 47 59 60 61 62 64 65 66 67 66 67 68 69 69 70 72
31 35 36 35 37 38 38 38 42 43 42 43 42 41 47 48 50 59 60 61 63 63 65 66 66 66 67 68 69 68 68 71
38 39 38 39 40 39 38 39 43 43 42 42 44 46 50 52 56 58 59 59 60 62 64 65 65 65 66 68 67 66 67 64

GFSFLT2_sfc_dewp_042.txt.gz
Dewpoint
31 29 27 30 29 30 27 24 25 24 27 26 33 36 50 53 55 56 58 59 60 60 61 61 63 63 64 65 65 65 65 67
32 33 29 31 32 29 28 27 20 25 20 30 27 32 40 47 51 54 56 57 57 59 60 61 62 63 64 64 65 65 66 66
32 31 25 27 32 32 29 27 26 18 20 28 29 31 34 40 51 52 54 54 54 57 59 60 61 63 63 64 65 65 66 67
30 33 35 34 29 32 30 27 23 24 25 25 25 28 30 31 49 52 54 53 53 54 58 59 60 61 63 64 65 66 67 67
28 27 27 29 28 28 25 31 28 29 29 26 24 25 26 27 34 48 53 54 53 53 56 58 59 61 63 64 64 65 67 67
25 25 28 27 27 26 26 25 30 29 30 31 31 28 30 28 30 40 53 54 54 54 57 58 60 62 63 63 64 65 67 67
30 32 31 29 27 26 26 25 27 26 26 28 30 30 28 30 33 34 43 53 56 56 57 59 60 61 64 64 65 65 66 67
29 28 27 26 26 26 26 28 22 21 21 39 31 47 56 57 57 47 41 40 53 57 57 58 60 61 63 65 65 66 66 67
23 26 26 25 28 35 39 40 38 23 36 47 48 58 58 59 60 61 52 39 41 56 57 57 59 61 63 65 67 67 67 68
25 25 27 36 39 39 37 36 40 42 44 52 53 59 60 59 59 61 62 52 47 55 56 57 58 59 62 65 68 69 69 69
24 24 34 35 38 39 38 36 37 39 43 47 56 57 59 57 58 61 66 58 55 56 57 58 59 61 63 66 69 69 69 70
30 28 34 37 39 42 40 35 38 40 40 43 55 53 56 57 59 62 66 66 59 60 60 60 61 61 64 65 67 69 69 70
31 31 38 40 42 39 34 35 39 41 40 41 46 48 51 58 60 63 66 68 65 62 61 62 62 62 63 65 65 67 69 70
35 36 35 43 39 36 38 38 37 39 42 41 47 54 54 57 59 61 63 66 67 68 67 66 64 63 64 65 67 67 68 70
34 36 40 45 42 41 40 39 40 39 42 45 49 53 54 55 56 57 60 62 66 65 66 67 69 69 68 70 72 68 67 68
36 37 39 42 41 39 41 41 41 41 41 44 49 51 52 52 54 54 56 60 62 65 65 65 67 68 69 70 71 70 69 69
36 35 39 40 40 41 41 42 43 43 42 43 45 47 49 48 50 51 53 57 61 62 64 64 65 66 68 68 69 69 71 72
35 38 39 40 42 42 42 42 43 44 43 43 45 46 49 47 49 50 51 55 60 63 63 64 65 66 67 67 67 68 68 69
40 43 43 44 45 45 43 44 44 44 45 43 46 45 49 47 48 50 52 53 56 61 63 64 64 64 66 65 65 66 67 67

GFSFLT2_sfc_dewp_045.txt.gz
Dewpoint
28 31 31 26 28 25 21 27 22 15 23 32 36 37 38 47 54 58 60 60 61 62 63 64 65 67 68 69 70 70 69 71
30 30 29 30 27 27 26 22 20 20 22 20 34 35 38 41 49 55 58 60 61 62 62 64 64 65 67 68 69 70 69 70
21 25 26 27 27 28 28 28 21 18 20 29 31 40 39 40 43 51 56 59 60 62 63 64 64 65 66 67 69 69 69 70
15 16 24 26 32 28 28 31 29 27 21 29 32 33 36 37 40 44 54 58 60 61 62 62 64 64 65 66 66 68 69 70
2 10 23 25 27 31 28 29 33 27 26 31 34 35 37 38 40 49 53 56 58 59 61 63 64 65 65 66 64 65 68 68
11 12 26 28 28 29 28 27 31 31 29 31 34 34 34 35 37 38 50 56 58 58 60 63 64 66 66 66 65 65 66 67
26 25 24 25 26 27 28 28 30 33 34 34 37 38 38 39 37 39 40 49 57 58 61 64 65 66 67 66 67 67 69 68
24 20 24 27 27 28 28 28 28 29 32 40 43 42 39 42 52 54 54 49 52 58 61 62 64 66 66 67 67 69 70 69
19 19 25 25 26 27 28 30 29 27 32 46 47 54 56 58 59 59 60 62 60 53 61 62 63 66 66 67 68 69 70 71
22 23 25 27 36 28 37 39 40 40 45 49 53 58 60 59 59 60 61 62 63 61 54 63 61 62 66 67 69 69 70 71
26 28 32 38 38 35 38 38 41 42 46 51 56 60 59 58 57 61 62 63 66 65 51 62 63 65 67 68 69 69 70 71
29 27 29 39 40 42 41 38 39 42 44 51 55 54 55 56 57 62 65 66 65 60 52 62 64 64 67 67 69 69 70 71
28 27 31 40 41 40 38 38 39 41 44 53 53 53 55 57 58 61 64 66 64 60 63 64 66 65 67 69 69 70 70 71
30 28 27 41 41 37 39 40 41 43 43 51 50 49 50 51 54 57 62 65 66 64 64 66 67 67 68 70 72 73 73 73
33 33 38 42 41 42 42 41 42 41 42 46 46 46 47 47 48 52 59 64 66 67 68 68 67 69 69 71 73 73 74 74
35 38 40 41 42 42 42 41 43 44 42 44 46 46 46 47 48 47 52 62 65 66 67 69 71 71 72 72 71 72 73 74
37 39 40 41 42 44 44 43 43 44 44 43 45 46 47 47 48 51 51 53 63 65 66 67 69 69 69 71 73 70 71 71
35 40 41 41 44 46 44 43 43 44 44 46 45 46 47 47 50 51 52 53 55 61 66 66 67 67 68 68 69 72 73 71
40 42 43 42 43 44 44 45 43 43 44 45 46 46 46 46 50 51 52 52 52 54 58 65 65 64 65 68 68 69 69 69

GFSFLT2_sfc_dewp_048.txt.gz
Dewpoint
25 29 30 28 25 24 23 22 17 12 15 15 27 35 38 40 46 48 55 57 59 61 62 62 64 67 68 70 71 71 70 73
19 22 26 30 26 24 23 25 23 21 22 14 26 35 36 38 41 47 53 57 59 61 62 62 63 65 66 68 70 70 69 70
12 5 11 23 26 27 25 24 23 22 20 25 26 28 36 37 40 42 51 56 58 60 61 62 63 64 65 66 68 69 70 71
10 5 10 14 27 26 23 28 26 25 23 23 27 27 28 34 39 41 48 54 57 58 60 61 62 63 64 65 66 68 70 73
4 3 10 12 14 24 28 29 30 26 26 30 31 32 32 31 33 42 45 50 55 56 59 60 62 63 62 64 64 65 68 68
7 8 12 20 21 22 26 26 27 27 29 33 32 32 34 36 39 37 41 48 51 55 57 61 63 67 67 64 63 63 65 66
18 17 16 14 10 18 26 30 29 28 28 31 36 35 35 36 37 38 40 45 52 54 58 64 66 68 68 65 66 65 68 66
19 17 17 14 10 9 17 24 28 30 31 33 35 39 37 36 38 41 47 45 44 52 56 60 63 67 69 69 67 68 70 69
18 15 12 10 12 15 14 21 26 28 32 35 38 42 42 43 43 50 53 55 56 54 53 57 60 65 67 70 69 70 72 72
20 16 17 15 15 16 17 18 26 30 33 34 42 47 57 58 58 59 59 60 60 59 60 56 57 59 65 66 71 72 73 73
27 23 20 21 23 28 19 20 28 33 34 32 39 47 58 60 60 61 63 64 64 64 62 64 58 60 64 65 68 71 72 73
30 24 22 27 34 35 38 31 42 43 42 37 43 44 48 59 60 60 63 64 66 66 66 65 65 58 61 65 67 70 72 73
28 27 27 28 34 37 36 39 43 44 48 53 48 53 55 54 56 59 62 65 67 67 66 65 64 59 66 67 68 70 70 71
31 28 25 38 37 37 44 43 43 44 47 48 47 47 47 49 50 54 60 66 66 63 61 60 60 65 69 70 71 73 73 73
33 34 40 39 39 46 44 46 44 43 45 44 42 44 46 47 48 49 53 62 67 65 63 64 66 67 69 73 74 73 73 75
34 37 37 40 43 46 47 45 45 45 44 45 46 45 46 48 49 50 52 53 64 68 69 69 68 68 70 72 75 74 73 74
35 36 39 42 42 46 45 46 45 44 46 45 46 46 46 50 51 53 54 54 56 64 67 68 70 70 72 72 73 72 73 73
34 39 39 39 45 46 45 44 45 45 45 48 48 48 49 51 53 53 54 55 56 57 62 65 66 68 69 71 73 71 71 70
39 43 44 45 45 45 44 46 46 46 47 46 47 48 50 51 53 53 53 55 55 57 59 63 64 64 67 70 71 73 73 74